Location: Kitt Peak
(31.9639°N, 111.5992°W)
Time: 15:29:22
(UTC-07:00)

Hubble Space Telescope - Pass Details

Date: 30 May 2024
Orbit: 510 x 514 km, 28.5° (Epoch: 23 June)

Event Time Altitude Azimuth Distance (km) Brightness Sun altitude
Rises 21:02:05 0° 265° (W) 2,610 5.0 -17.6°
Reaches altitude 10° 21:04:22 10° 260° (W) 1,723 3.9 -17.9°
Maximum altitude 21:08:12 48° 185° (S) 670 0.9 -18.5°
Enters shadow 21:08:37 46° 164° (SSE) 692 0.9 -18.6°
